| time (UTC) | temp F | wind direction | speed MPH | gust MPH | rain 1hr in | rain 24hr in | rain mn in | humidity % | barometer mb |
| 20260507080052 | 0 | 69 | 0.0 | 0.0 | 0.00 | 0.14 | 0.14 | 1016.0 | |
| 20260507074548 | 0 | 0.0 | 0.0 | 0.00 | 0.14 | 0.14 | 1015.9 | ||
| 20260507073045 | 0 | 69 | 0.0 | 0.0 | 0.00 | 0.14 | 0.14 | 1015.8 | |
| 20260507071540 | 0 | 69 | 0.0 | 0.0 | 0.00 | 0.14 | 0.14 | 1015.8 | |
| 20260507070046 | 0 | 69 | 0.0 | 0.0 | 0.00 | 0.14 | 0.14 | 1015.7 | |
| 20260507064536 | 0 | 69 | 0.0 | 0.0 | 0.00 | 0.14 | 0.14 | 1015.7 | |
| 20260507063034 | 0 | 69 | 0.0 | 0.0 | 0.00 | 0.14 | 0.14 | 1015.6 | |
| 20260507061527 | 0 | 69 | 0.0 | 0.0 | 0.00 | 0.14 | 0.14 | 1015.6 | |
| 20260507060022 | 0 | 69 | 0.0 | 0.0 | 0.00 | 0.14 | 0.14 | 1015.4 | |
| 20260507054518 | 0 | 69 | 0.0 | 0.0 | 0.00 | 0.14 | 0.14 | 1015.3 | |
| 20260507053008 | 0 | 69 | 0.0 | 0.0 | 0.00 | 0.14 | 0.14 | 1015.2 | |
| 20260507051504 | 0 | 69 | 0.0 | 0.0 | 0.00 | 0.14 | 0.14 | 1015.2 | |
| 20260507050103 | 0 | 69 | 0.0 | 0.0 | 0.00 | 0.14 | 0.14 | 1015.1 | |
| 20260507044557 | 0 | 69 | 0.0 | 0.0 | 0.00 | 0.14 | 0.14 | 1015.0 | |
| 20260507043001 | 0 | 69 | 0.0 | 0.0 | 0.00 | 0.14 | 0.14 | 1014.9 | |
| 20260507041601 | 0 | 69 | 0.0 | 0.0 | 0.00 | 0.14 | 0.14 | 1014.9 | |
| 20260507040053 | 0 | 68 | 0.0 | 0.0 | 0.00 | 0.14 | 0.14 | 1014.8 | |
| 20260507034558 | 0 | 69 | 0.0 | 0.0 | 0.00 | 0.14 | 0.14 | 1014.8 | |
| 20260507033048 | 0 | 69 | 0.0 | 0.0 | 0.00 | 0.14 | 0.14 | 1014.7 | |
| 20260507031543 | 0 | 69 | 0.0 | 0.0 | 0.00 | 0.14 | 0.14 | 1014.8 | |
| 20260507030040 | 0 | 69 | 0.0 | 0.0 | 0.00 | 0.14 | 0.14 | 1014.8 | |
| 20260507024549 | 0 | 69 | 0.0 | 0.0 | 0.00 | 0.14 | 0.14 | 1014.6 | |
| 20260507023000 | 0 | 69 | 0.0 | 0.0 | 0.00 | 0.14 | 0.14 | 1014.6 | |
| 20260507021559 | 0 | 69 | 0.0 | 0.0 | 0.00 | 0.14 | 0.14 | 1014.5 | |
| 20260507020051 | 0 | 69 | 0.0 | 0.0 | 0.00 | 0.14 | 0.14 | 1014.5 | |
| 20260507014543 | 0 | 69 | 0.0 | 0.0 | 0.00 | 0.14 | 0.14 | 1014.5 | |
| 20260507013035 | 0 | 68 | 0.0 | 0.0 | 0.00 | 0.14 | 0.14 | 1014.4 | |
| 20260507011539 | 0 | 69 | 0.0 | 0.0 | 0.00 | 0.14 | 0.14 | 1014.5 | |
| 20260507010026 | 0 | 69 | 0.0 | 0.0 | 0.00 | 0.14 | 0.14 | 1014.5 | |
| 20260507004521 | 0 | 68 | 0.0 | 0.0 | 0.00 | 0.14 | 0.14 | 1014.4 | |
| 20260507003018 | 0 | 69 | 0.0 | 0.0 | 0.00 | 0.14 | 0.14 | 1014.4 | |
| 20260507001516 | 0 | 69 | 0.0 | 0.0 | 0.00 | 0.14 | 0.14 | 1014.4 | |
| 20260507000012 | 0 | 69 | 0.0 | 0.0 | 0.00 | 0.14 | 0.14 | 1014.5 | |
| 20260506234507 | 0 | 69 | 0.0 | 0.0 | 0.00 | 0.14 | 0.14 | 1014.5 | |
| 20260506233002 | 0 | 69 | 0.0 | 0.0 | 0.00 | 0.14 | 0.14 | 1014.5 | |
| 20260506231558 | 0 | 69 | 0.0 | 0.0 | 0.00 | 0.14 | 0.14 | 1014.4 | |
| 20260506230004 | 0 | 69 | 0.0 | 0.0 | 0.00 | 0.14 | 0.14 | 1014.4 | |
| 20260506224559 | 0 | 69 | 0.0 | 0.0 | 0.00 | 0.14 | 0.14 | 1014.3 | |
| 20260506223059 | 0 | 69 | 0.0 | 0.0 | 0.00 | 0.14 | 0.14 | 1014.3 | |
| 20260506221551 | 0 | 69 | 0.0 | 0.0 | 0.00 | 0.14 | 0.14 | 1014.2 | |
| 20260506214539 | 0 | 69 | 0.0 | 0.0 | 0.03 | 0.14 | 0.14 | 1014.2 | |
| 20260506213035 | 0 | 69 | 0.0 | 0.0 | 0.06 | 0.14 | 0.14 | 1014.1 | |
| 20260506211534 | 0 | 69 | 0.0 | 0.0 | 0.06 | 0.14 | 0.14 | 1014.0 | |
| 20260506204523 | 0 | 78 | 0.0 | 0.0 | 0.02 | 0.11 | 0.11 | 1014.1 | |
| 20260506203015 | 0 | 22 | 0.0 | 0.0 | 0.00 | 0.09 | 0.09 | 1013.9 | |
| 20260506201512 | 0 | 29 | 0.0 | 0.0 | 0.00 | 0.09 | 0.09 | 1013.6 | |
| 20260506194505 | 0 | 29 | 0.0 | 0.0 | 0.00 | 0.09 | 0.09 | 1013.5 | |
| 20260506193100 | 0 | 29 | 0.0 | 0.0 | 0.00 | 0.09 | 0.09 | 1013.3 | |
| 20260506191558 | 0 | 29 | 0.0 | 0.0 | 0.00 | 0.09 | 0.09 | 1013.2 | |
| 20260506184547 | 0 | 29 | 0.0 | 0.0 | 0.02 | 0.09 | 0.09 | 1013.0 | |
| 20260506183044 | 0 | 29 | 0.0 | 0.0 | 0.05 | 0.09 | 0.09 | 1012.9 | |
| 20260506181538 | 0 | 29 | 0.0 | 0.0 | 0.07 | 0.09 | 0.09 | 1012.9 | |
| 20260506174544 | 0 | 29 | 0.0 | 0.0 | 0.06 | 0.07 | 0.07 | 1012.7 | |
| 20260506173036 | 0 | 29 | 0.0 | 0.0 | 0.03 | 0.05 | 0.05 | 1012.6 | |
| 20260506171533 | 0 | 29 | 0.0 | 0.0 | 0.01 | 0.02 | 0.02 | 1012.5 | |
| 20260506164517 | 0 | 29 | 0.0 | 0.0 | 0.00 | 0.02 | 0.02 | 1012.4 | |
| 20260506163012 | 0 | 29 | 0.0 | 0.0 | 0.01 | 0.02 | 0.02 | 1012.4 | |
| 20260506161507 | 0 | 29 | 0.0 | 0.0 | 0.01 | 0.02 | 0.02 | 1012.4 | |
| 20260506154602 | 0 | 29 | 0.0 | 0.0 | 0.02 | 0.02 | 0.02 | 1012.5 | |
| 20260506153056 | 0 | 30 | 0.0 | 0.0 | 0.01 | 0.01 | 0.01 | 1012.6 | |
| 20260506151551 | 0 | 28 | 0.0 | 0.0 | 0.01 | 0.01 | 0.01 | 1012.5 | |
| 20260506144608 | 0 | 126 | 0.0 | 0.0 | 0.00 | 0.00 | 0.00 | 1012.5 | |
| 20260506143053 | 0 | 336 | 0.0 | 0.0 | 0.00 | 0.00 | 0.00 | 1012.3 | |
| 20260506141543 | 0 | 336 | 0.0 | 0.0 | 0.00 | 0.00 | 0.00 | 1012.2 | |
| 20260506134534 | 0 | 336 | 0.0 | 0.0 | 0.00 | 0.00 | 0.00 | 1012.3 | |
| 20260506133024 | 0 | 18 | 0.0 | 0.0 | 0.00 | 0.00 | 0.00 | 1012.3 | |
| 20260506131532 | 0 | 18 | 0.0 | 0.0 | 0.00 | 0.00 | 0.00 | 1012.3 | |
| 20260506124519 | 0 | 18 | 0.0 | 0.0 | 0.00 | 0.00 | 0.00 | 1012.3 | |
| 20260506123019 | 0 | 297 | 0.0 | 0.0 | 0.00 | 0.00 | 0.00 | 1012.1 | |
| 20260506121510 | 0 | 292 | 0.0 | 0.0 | 0.00 | 0.00 | 0.00 | 1012.1 | |
| 20260506114606 | 0 | 294 | 0.0 | 0.0 | 0.00 | 0.00 | 0.00 | 1012.1 | |
| 20260506113056 | 0 | 294 | 0.0 | 0.0 | 0.00 | 0.00 | 0.00 | 1012.0 | |
| 20260506111551 | 0 | 289 | 0.0 | 0.0 | 0.00 | 0.00 | 0.00 | 1012.1 | |
| 20260506110146 | 0 | 355 | 0.0 | 0.0 | 0.00 | 0.00 | 0.00 | 1012.1 | |
| 20260506104553 | 0 | 355 | 0.0 | 0.0 | 0.00 | 0.00 | 0.00 | 1012.0 | |
| 20260506103040 | 0 | 300 | 0.0 | 0.0 | 0.00 | 0.00 | 0.00 | 1012.0 | |
| 20260506101536 | 0 | 300 | 0.0 | 0.0 | 0.00 | 0.00 | 0.00 | 1012.1 | |
| 20260506100130 | 0 | 298 | 0.0 | 0.0 | 0.00 | 0.00 | 0.00 | 1012.1 | |
| 20260506094527 | 0 | 11 | 0.0 | 0.0 | 0.00 | 0.00 | 0.00 | 1012.1 | |
| 20260506093030 | 0 | 360 | 0.0 | 0.0 | 0.00 | 0.00 | 0.00 | 1012.1 | |
| 20260506091516 | 0 | 355 | 0.0 | 0.0 | 0.00 | 0.00 | 0.00 | 1012.0 | |
| 20260506090112 | 0 | 360 | 0.0 | 0.0 | 0.00 | 0.00 | 0.00 | 1011.8 | |
| 20260506084513 | 0 | 5 | 0.0 | 0.0 | 0.00 | 0.00 | 0.00 | 1011.8 | |
| 20260506083007 | 0 | 306 | 0.0 | 0.0 | 0.00 | 0.00 | 0.00 | 1011.8 | |
| 20260506081507 | 0 | 304 | 0.0 | 0.0 | 0.00 | 0.00 | 0.00 | 1011.8 |